Yatton Keynell, United Kingdom

2:00 AM BST on April 25, 2019 (GMT +0100)
Yatton Keynell

Weather History for 03740 - June, 2015

Change the Weather History Date:

Sunday, June 21, 2015

  Actual Average Record
Temperature  
Mean Temperature 60 °F -  
Max Temperature 65 °F 68 °F - ()
Min Temperature 54 °F 52 °F - ()
Degree Days  
Heating Degree Days 6    
Growing Degree Days 10 (Base 50)    
Moisture  
Dew Point 50 °F    
Average Humidity 69    
Maximum Humidity 99    
Minimum Humidity 45    
Precipitation  
Precipitation 0.00 in 0.07 in - ()
Sea Level Pressure  
Sea Level Pressure 30.04 in    
Wind  
Wind Speed 9 mph ()    
Max Wind Speed 18 mph    
Max Gust Speed -    
T = Trace of Precipitation, MM = Missing Value Source: Averaged Metar Reports

Daily Weather History Graph

Daily Weather History Graph

Search for Another Location

Airport or City:

Astronomy

Jun. 21, 2015 Rise Set
Actual Time 4:50 AM BST 9:28 PM BST
Civil Twilight 4:02 AM BST 10:16 PM BST
Nautical Twilight 2:48 AM BST 11:31 PM BST
Astronomical Twilight 1:41 AM BST 12:37 AM BST
Moon 10:10 AM BST (6/21) No Moon Set
Length of Visible Light 18h 13m
Length of Day
16h 38m
Waxing Crescent, 23% of the Moon is Illuminated
Jun 21
Waxing Crescent
Jun 24
First Quarter
Jul 2
Full
Jul 8
Last Quarter
Jul 16
New

Hourly Weather History & Observations

Time (BST) Temp. Dew Point Humidity Pressure Visibility Wind Dir Wind Speed Gust Speed Precip Events Conditions
12:00 AM 57 °F 55 °F 92% 30.10 in - WSW 9.2 mph - -   Overcast
1:00 AM 57 °F 55 °F 89% 30.10 in - WSW 6.9 mph - -   Overcast
2:00 AM 57 °F 56 °F 97% 30.08 in - WSW 8.1 mph - -   Overcast
3:00 AM 56 °F 56 °F 99% 30.07 in - WSW 8.1 mph - -   Mostly Cloudy
4:00 AM 56 °F 52 °F 83% 30.06 in - WSW 10.4 mph - -   Scattered Clouds
5:00 AM 55 °F 53 °F 89% 30.05 in - WSW 6.9 mph - -   Mostly Cloudy
6:00 AM 54 °F 53 °F 97% 30.04 in - WSW 5.8 mph - -   Partly Cloudy
7:00 AM 55 °F 54 °F 96% 30.05 in - SW 4.6 mph - -  
8:00 AM 56 °F 51 °F 78% 30.06 in - West 11.5 mph - -   Scattered Clouds
9:00 AM 57 °F 48 °F 64% 30.07 in - West 12.7 mph - -   Scattered Clouds
10:00 AM 58 °F 47 °F 56% 30.06 in - WNW 15.0 mph - -   Mostly Cloudy
11:00 AM 59 °F 46 °F 51% 30.05 in - West 13.8 mph - -   Mostly Cloudy
12:00 PM 60 °F 45 °F 47% 30.04 in - West 12.7 mph - -   Mostly Cloudy
1:00 PM 61 °F 48 °F 51% 30.03 in - West 11.5 mph - -   Partly Cloudy
2:00 PM 63 °F 48 °F 47% 30.02 in - West 15.0 mph - -   Scattered Clouds
3:00 PM 61 °F 48 °F 53% 30.03 in - West 15.0 mph - -   Mostly Cloudy
4:00 PM 62 °F 48 °F 49% 30.02 in - West 15.0 mph - -   Partly Cloudy
5:00 PM 64 °F 48 °F 45% 30.01 in - West 18.4 mph - -   Scattered Clouds
6:00 PM 61 °F 47 °F 49% 30.01 in - West 17.3 mph - -   Scattered Clouds
7:00 PM 60 °F 45 °F 48% 30.00 in - West 15.0 mph - -  
8:00 PM 58 °F 47 °F 57% 30.00 in - West 13.8 mph - -   Scattered Clouds
9:00 PM 56 °F 48 °F 67% 30.00 in - West 13.8 mph - -   Mostly Cloudy
10:00 PM 55 °F 48 °F 69% 30.01 in - West 11.5 mph - -   Overcast
11:00 PM 54 °F 49 °F 79% 30.00 in - West 10.4 mph - -   Overcast